TIME,DELAY(SENSOR),PRES,T(CTD),SAL,OXYGEN,RAWTEMP,T(OPTODE),TCPHASE,FLUOR,BETA(BETA700),BETA(BETA412),BETA(BETA440),CDOM,C(CSC),ED(ED412.40),ED(ED444.00),ED(ED489.70),ED(ED554.30),LU(LU411.80),LU(LU443.40),LU(LU489.60),LU(LU554.10),COMP,TILTX,TILTX(TILTY),CHECK
1377812287,5810,491.9200134277344000,6.8874001502990720,34.1263008117675800,80.4838562011718800,590.6718139648438000,6.8851909637451170,48.7153816223144500,52,103,89,80,77,15240,2147748416,2147425856,2148009316,2147872256,2147628608,2147072521,2148245805,2147198509,210,4,13,14670
1377812400,5807,480.4800109863281000,7.0545997619628910,34.1268997192382800,85.6950683593750000,586.1981201171875000,7.0292220115661620,48.0475082397460940,50,105,85,79,78,15239,2147746267,2147424594,2148008932,2147874560,2147626157,2147078473,2148243785,2147201142,3286,4,12,39628
1377812510,5809,469.4400024414062500,7.2779002189636230,34.1249008178710940,92.5156326293945300,578.1649169921875000,7.2873921394348145,47.1588401794433600,52,104,84,80,76,15237,2147746157,2147422866,2148009764,2147871414,2147624128,2147079542,2148239798,2147201362,2261,4,12,46083
1377812631,5807,457.5599975585937500,7.4633002281188965,34.1190986633300800,100.4590988159179700,573.3494873046875000,7.4418702125549320,46.2259292602539060,51,103,88,78,76,15240,2147745728,2147423405,2148008054,2147872512,2147625426,2147078564,2148239780,2147205558,1010,4,13,42510
1377812743,5811,446.8599853515625000,7.8895001411437990,34.1608009338378900,97.2002105712890600,559.6472778320312000,7.8803229331970215,46.3589897155761700,51,104,89,81,76,15238,2147740717,2147423981,2148007862,2147867620,2147621760,2147084763,2148237961,2147200950,419,4,13,22259
1377812864,5807,435.8999938964844000,7.8994002342224120,34.1105995178222660,109.3478012084961000,558.3162231445312000,7.9228320121765140,45.0686302185058600,51,104,84,81,75,15241,2147743314,2147423542,2148006573,2147871222,2147621632,2147086720,2148234112,2147200777,335,3,13,6834
1377812985,5811,425.7000122070312500,8.3260002136230470,34.1543998718261700,114.3615036010742200,546.5363159179688000,8.2983694076538090,44.3730316162109400,50,103,84,80,75,15237,2147745718,2147425115,2148008256,2147874633,2147619520,2147083062,2148237248,2147201865,3124,3,13,18245
1377813119,5807,414.4100036621094000,8.5271997451782230,34.1341018676757800,120.8125991821289000,539.1032104492188000,8.5347461700439450,43.6258697509765600,50,103,89,80,74,15236,2147741814,2147422317,2148006381,2147874048,2147618953,2147088429,2148229824,2147201737,2002,3,13,234
1377813251,5809,403.4599914550781000,8.6001996994018550,34.1045989990234400,144.3786010742187500,537.5700073242188000,8.5834474563598630,41.4887313842773440,50,103,85,81,73,15242,2147740086,2147426322,2148006198,2147871506,2147617938,2147084406,2148229979,2147201298,425,3,13,36695
1377813375,5806,392.4700012207031000,8.7854003906250000,34.1123008728027340,148.4696960449218800,531.5046997070312000,8.7759275436401370,41.0459213256835940,50,105,85,79,72,15239,2147737664,2147425051,2148006902,2147873810,2147617883,2147087616,2148226934,2147202441,2966,3,13,44066
1377813496,5809,381.1799926757812500,9.0917997360229500,34.1221008300781250,150.8298034667968800,522.1113281250000000,9.0734615325927730,40.6909599304199200,49,103,84,78,73,15239,2147740251,2147425974,2148006985,2147871405,2147616210,2147088411,2148232173,2147202285,2160,3,13,51735
1377813617,5808,370.6199951171875000,9.3760004043579100,34.1335983276367200,153.4721984863281200,512.8076782226562000,9.3674983978271480,40.3198013305664060,50,106,86,79,73,15237,2147736027,2147426020,2148005421,2147875666,2147614253,2147093348,2148227501,2147202962,956,3,13,33058
1377813751,5811,360.0899963378906000,9.6647996902465820,34.1342010498046900,159.2550964355468800,503.4729003906250000,9.6618881225585940,39.7056198120117200,50,104,89,79,72,15237,2147736694,2147428461,2148008173,2147876196,2147611858,2147096237,2148226651,2147202660,2964,3,13,28612
1377813916,5809,348.9500122070312500,10.0277004241943360,34.1341018676757800,169.9046936035156200,492.0018920898437500,10.0228099822998050,38.7089614868164060,49,103,88,80,71,15241,2147735250,2147424896,2148005513,2147877522,2147612918,2147096758,2148225837,2147203702,2272,3,13,16937
1377814079,5808,337.6499938964844000,10.4995002746582030,34.1341018676757800,179.0263061523437500,476.8908996582031000,10.4968996047973630,37.8065109252929700,50,104,88,80,70,15239,2147735936,2147428315,2148005860,2147877613,2147609700,2147096274,2148225042,2147202587,1981,3,13,7485
1377814211,5807,326.8299865722656000,10.8765001296997070,34.1403007507324200,187.3500061035156200,464.7099914550781000,10.8780002593994140,37.0402183532714840,49,105,87,79,70,15236,2147729782,2147426496,2148008969,2147875236,2147606262,2147107483,2148221019,2147205741,543,4,14,9050
1377814363,5810,311.8500061035156000,11.1975002288818360,34.1525993347168000,191.2644042968750000,451.8337097167969000,11.2798900604248050,36.5721817016601560,49,106,91,80,69,15236,2147727945,2147425974,2148007552,2147877988,2147605979,2147103853,2148220059,2147206116,320,4,13,4800
1377814461,5809,300.6000061035156000,11.8213996887207030,34.1664009094238300,194.5937957763672000,434.7645874023437500,11.8111801147460940,36.0829010009765600,49,103,84,80,70,15236,2147730340,2147426916,2148014564,2147872393,2147601728,2147113472,2148219364,2147203465,3012,3,14,61115
1377814560,5809,289.4200134277344000,12.4744997024536130,34.2009010314941400,199.9617004394531200,413.5838928222656000,12.4683303833007810,35.4097709655761700,49,103,87,80,68,15230,2147727451,2147433984,2148021184,2147874377,2147600704,2147119332,2148217179,2147203712,2315,3,13,25134
1377814689,5808,277.3999938964844000,13.1496000289917000,34.2647018432617200,206.8744964599609400,388.9926147460937500,13.2286500930786130,34.6114807128906250,49,104,88,80,67,15233,2147725979,2147432905,2148029668,2147872502,2147595730,2147123849,2148222966,2147209673,1455,3,14,20116
1377814856,5808,266.9899902343750000,14.0710000991821290,34.3480987548828100,215.2845001220703000,362.1350097656250000,14.0562200546264650,33.7212486267089840,48,103,89,79,67,15236,2147721042,2147434093,2148033600,2147872932,2147592210,2147128557,2148218230,2147208923,677,3,14,15623
1377815023,5809,255.6100006103515600,14.8409996032714840,34.4216995239257800,216.1697998046875000,337.0408935546875000,14.8272104263305660,33.2976112365722660,49,103,87,79,65,15232,2147721874,2147443062,2148060507,2147873243,2147586240,2147143451,2148228562,2147206985,759,3,13,30572
1377815155,5808,244.9400024414062500,15.7548999786376950,34.5079002380371100,212.9528961181640600,306.0227966308594000,15.7778396606445310,33.0207710266113300,48,105,83,79,66,15229,2147716041,2147448438,2148072082,2147873600,2147581376,2147151835,2148227611,2147210962,3143,3,13,11789
1377815307,5807,231.6199951171875000,16.6814002990722660,34.6208000183105500,210.6528930664062500,276.5733032226562500,16.6786403656005860,32.7243194580078100,49,107,85,80,65,15225,2147713380,2147455168,2148092461,2147874944,2147578176,2147160548,2148230043,2147216786,1554,3,13,20748
1377815404,5808,221.1999969482422000,16.9906997680664060,34.6623992919921900,210.4557952880859400,266.5126037597656000,16.9860992431640620,32.5917701721191400,49,106,86,81,64,15225,2147717906,2147493275,2148215241,2147872566,2147578697,2147192521,2148293046,2147216000,690,2,14,59821
1377815514,5811,209.4499969482422000,17.6063995361328120,34.7368011474609400,209.1873016357422000,245.7964935302734400,17.6189308166503900,32.3695106506347660,50,106,87,80,64,15220,2147724132,2147543067,2148344777,2147875355,2147578285,2147224274,2148347026,2147215734,2915,2,14,62022
1377815643,5808,197.6499938964843800,18.4090995788574220,34.8362007141113300,209.6916961669922000,220.6412963867187500,18.3871307373046880,31.9904594421386720,54,103,86,80,63,15217,2147734720,2147618733,2148522185,2147873243,2147580973,2147270180,2148428324,2147229549,2239,2,15,34498
1377815700,5808,193.4299926757812500,18.6721000671386720,34.8732986450195300,209.7494964599609400,211.9095001220703000,18.6537990570068360,31.8663692474365230,56,105,85,79,63,15219,2147735067,2147608265,2148471104,2147874880,2147581110,2147260013,2148400292,2147225691,2105,2,15,27374
1377815755,5809,189.5299987792968800,18.8777008056640620,34.9016990661621100,209.7686004638672000,205.1974029541015600,18.8588199615478500,31.7731208801269530,57,107,86,80,63,15212,2147742381,2147640822,2148551515,2147874459,2147578697,2147287414,2148446793,2147229238,2274,2,14,47835
1377815810,5809,185.7700042724609400,18.9484996795654300,34.9141998291015600,210.1963958740234400,202.0355072021484400,18.9554004669189450,31.7062606811523440,56,107,86,80,64,15214,2147745298,2147651273,2148562614,2147870957,2147584091,2147293696,2148444800,2147232393,2131,2,15,29278
1377815865,5807,182.0800018310547000,19.0746994018554700,34.9281997680664060,210.7321929931640600,198.3699035644531200,19.0673809051513670,31.6267890930175780,57,108,86,81,62,15212,2147754112,2147672246,2148599049,2147872722,2147584402,2147304310,2148456219,2147235483,1529,2,15,63679
1377815949,5808,177.3600006103515600,19.3379993438720700,34.9625015258789060,210.3632965087890600,190.3849029541015600,19.3113498687744140,31.5375194549560550,62,116,84,79,63,15207,2147768064,2147712164,2148678646,2147872795,2147585956,2147324918,2148492397,2147236315,1388,2,15,31410
1377816048,5808,174.2400054931640600,19.6070995330810550,34.9963989257812500,210.2373046875000000,182.5941925048828000,19.5494499206542970,31.4383602142334000,68,110,87,80,63,15202,2147812489,2147902628,2149137353,2147873481,2147605421,2147432841,2148700745,2147250898,1670,2,15,13231
1377816305,5807,170.1199951171875000,20.1905994415283200,35.0756988525390600,212.8097991943359400,162.2413940429687500,20.1718406677246100,31.0247001647949220,72,113,88,80,63,15199,2147852854,2148029184,2149396288,2147878226,2147618578,2147506148,2148811382,2147255643,2772,2,15,60506
1377816426,5813,165.5700073242187500,20.3880996704101560,35.0964012145996100,213.3448028564453000,155.2357940673828000,20.3862304687500000,30.9021205902099600,76,111,89,81,61,15194,2147808877,2147829110,2148896886,2147878445,2147599488,2147403949,2148580534,2147238701,2794,1,15,48346
1377816514,5808,161.8000030517578000,20.4997997283935550,35.1066017150878900,213.7292938232422000,151.7987976074218800,20.4914398193359380,30.8358497619628900,81,113,87,82,63,15185,2147888393,2148091154,2149481545,2147877970,2147629760,2147542445,2148836123,2147258898,1697,2,15,33746
1377816598,5808,157.4299926757812500,20.7042007446289060,35.1290016174316400,213.8079071044922000,144.8401947021484400,20.7045307159423830,30.7391109466552730,81,116,87,81,62,15182,2147975195,2148322377,2149961947,2147880356,2147667181,2147668608,2149057289,2147274788,1161,2,15,21679
1377816664,5807,153.6000061035156200,20.9685001373291000,35.1663017272949200,215.7962036132812500,136.7953033447265600,20.9510192871093750,30.5276107788085940,87,112,86,81,61,15175,2148070674,2148565019,2150435309,2147888146,2147700992,2147792740,2149250112,2147290697,549,2,15,27680
1377816741,5807,149.6100006103515600,20.9852008819580080,35.1680984497070300,217.1392059326172000,135.2250061035156200,20.9991493225097660,30.4370498657226560,89,113,89,82,61,15175,2148258971,2149061211,2151429028,2147892790,2147772324,2148040457,2149668333,2147322048,2986,2,15,17262
1377816829,5807,145.7100067138672000,21.2749996185302730,35.1994018554687500,218.8182983398437500,126.8152999877929700,21.2570095062255860,30.2398395538330080,90,118,90,82,62,15170,2148315547,2149106459,2151429357,2147897188,2147791387,2148047131,2149640192,2147320694,2917,2,15,49801
1377816941,5808,141.9900054931640600,21.6494007110595700,35.2425994873046900,221.7937927246093800,114.6183013916015600,21.6313400268554700,29.9295005798339840,98,117,88,81,61,15153,2148476470,2149432411,2152006976,2147901257,2147854765,2148206034,2149861732,2147338962,2602,1,15,40378
1377817106,5808,138.1499938964843800,21.8770999908447270,35.2869987487793000,228.1840972900390600,106.9273986816406200,21.8675994873046880,29.5141296386718750,102,122,89,82,60,15143,2148424484,2149202898,2151477074,2147905883,2147843282,2148096594,2149633892,2147322029,3037,2,15,12242
1377817224,5807,133.3000030517578000,21.9066009521484380,35.2787017822265600,229.7330017089843800,105.8116989135742200,21.9018898010253900,29.4251194000244140,102,119,89,81,60,15136,2148744941,2149878034,2152739245,2147918354,2147981540,2148439680,2150171008,2147365494,451,2,15,7598
1377817290,5806,129.0000000000000000,21.9113998413085940,35.2729988098144500,230.0446014404297000,105.5701980590820300,21.9093093872070300,29.4069404602050780,105,121,90,83,60,15138,2149131117,2150655954,2154197120,2147944676,2148127067,2148784978,2150697526,2147411849,942,2,15,62710
1377817345,5810,125.1200027465820300,21.9468994140625000,35.2700004577636700,230.2162933349609400,104.5120010375976600,21.9418296813964840,29.3849906921386720,107,123,88,83,61,15134,2149336475,2150980525,2154688530,2147958061,2148211218,2148928786,2150901220,2147427666,1422,2,15,40836
1377817400,5809,121.2099990844726600,21.9909000396728500,35.2746009826660160,230.6712951660156200,102.9738006591796900,21.9891204833984380,29.3434200286865230,112,122,88,83,60,15132,2149705920,2151647451,2155820781,2147984082,2148365147,2149239872,2151341284,2147462089,1596,2,15,54937
1377817466,5808,116.6900024414062500,22.0928001403808600,35.2864990234375000,231.3851928710937500,98.8013381958007800,22.1174201965332030,29.2559299468994140,114,119,88,82,60,15132,2150562797,2153218797,2158542043,2148047753,2148706560,2149970669,2152408237,2147557796,1894,2,16,61890
1377817545,5808,112.2099990844726600,22.3013992309570300,35.3191986083984400,233.6651000976562500,94.1611862182617200,22.2601795196533200,29.0888404846191400,116,118,88,82,61,15137,2151208795,2154290422,2160280374,2148099830,2148959387,2150438336,2153041819,2147621531,2185,2,15,53240
1377817633,5806,108.8600006103515600,22.3423995971679700,35.3179016113281250,234.6430053710937500,92.2309265136718800,22.3195896148681640,29.0184707641601560,120,116,86,81,60,15129,2151879332,2155408466,2162106185,2148160411,2149235419,2150954578,2153749549,2147681161,2245,2,16,14603
1377817856,5807,105.6999969482421900,22.7012004852294920,35.3293991088867200,237.8533020019531200,80.1337738037109400,22.6921997070312500,28.7167091369628900,118,117,88,83,59,15129,2152506459,2156387318,2163583515,2148213229,2149479140,2151305956,2154241956,2147735424,2655,1,15,58597
1377818076,5806,101.0000000000000000,22.7619991302490230,35.3315010070800800,240.1719970703125000,77.8415832519531200,22.7628707885742200,28.5820007324218750,114,119,88,83,60,15125,2154618011,2159800868,2168596982,2148385060,2150360365,2152804096,2156213430,2147924763,639,1,15,36039
1377818160,5808,97.3499984741211000,22.8286991119384770,35.3297004699707000,240.6844024658203000,75.9714126586914000,22.8205394744873050,28.5354499816894530,111,120,88,81,59,15116,2156759433,2163224530,2173578934,2148603483,2151236790,2154303259,2158148498,2148124672,373,2,15,5188
1377818215,5809,94.0800018310546900,22.9860992431640620,35.3300018310546900,242.1661071777343800,71.0925827026367200,22.9710597991943360,28.4076194763183600,101,121,89,82,59,15119,2151256987,2153174043,2156528091,2148105170,2149087085,2149949312,2151778267,2147547200,1100,1,16,36061
1377818270,5810,90.7900009155273400,23.0095005035400400,35.3292007446289060,243.8504943847656200,70.0457611083984400,23.0033607482910160,28.3193397521972660,107,120,87,83,58,15110,2160232740,2168577124,2180975542,2149035986,2152822454,2156858130,2161238125,2148458697,1081,1,16,20866
1377818325,5810,87.4599990844726600,23.0559997558593750,35.3252983093261700,244.4841003417968800,68.5171432495117200,23.0505504608154300,28.2722206115722660,102,120,87,83,60,15117,2161683273,2170529956,2183353353,2149249344,2153529280,2157904411,2162410587,2148596178,754,1,15,33088
1377818380,5808,84.3000030517578100,23.0774993896484380,35.3167991638183600,243.3359985351562500,67.7035064697265600,23.0756702423095700,28.3130493164062500,101,119,87,83,59,15115,2163628342,2173105837,2186304064,2149514066,2154403812,2159200676,2163830016,2148763163,305,1,15,24287
1377818437,5808,81.3899993896484400,23.1438999176025400,35.3160018920898440,242.5325927734375000,65.6053619384765600,23.1404590606689450,28.3226394653320300,94,121,88,83,60,15114,2166163136,2176556790,2190510272,2149897810,2155478601,2160795949,2165622619,2148988562,3287,1,16,38391
1377818492,5806,79.0999984741211000,23.1837005615234380,35.3140983581543000,241.9624023437500000,64.1884689331054700,23.1842193603515620,28.3302898406982420,95,121,90,82,59,15113,2168357485,2179548315,2193964141,2150210971,2156485513,2162245129,2167162505,2149175286,2742,1,16,31850
1377818547,5805,77.1800003051757800,23.2460994720459000,35.3106994628906250,241.8321075439453000,62.1792297363281250,23.2462902069091800,28.3111305236816400,90,122,87,84,59,15106,2170497709,2182347840,2197030902,2150533878,2157507382,2163682596,2168614162,2149359990,2313,1,16,7018
1377818602,5809,75.6200027465820300,23.3141994476318360,35.3045005798339840,241.8126068115234400,60.6908302307128900,23.2922801971435550,28.2935009002685550,88,126,87,83,58,15102,2172445220,2184783533,2199504493,2150766107,2158576877,2165223744,2170193325,2149545984,1955,1,15,62404
1377818657,5809,74.4599990844726600,23.3439006805419920,35.3018989562988300,241.6676940917968800,59.0944595336914060,23.3416194915771500,28.2799797058105470,86,125,93,84,58,15100,2174730934,2187668278,2202710107,2151018605,2159681545,2166881618,2171897874,2149741659,1223,1,16,24307
1377818775,5810,71.7699966430664000,23.4458007812500000,35.2994003295898440,241.5594940185547000,56.1225891113281250,23.4335098266601560,28.2477207183837900,81,126,91,85,57,15097,2181527680,2196008969,2211912576,2151973485,2162787492,2171248000,2176144493,2150257801,474,1,16,50263
1377818830,5808,69.5999984741211000,23.5382003784179700,35.3032989501953100,241.5072937011718800,52.9694595336914060,23.5310401916503900,28.2107906341552730,80,126,91,84,58,15090,2186577691,2201917394,2217951945,2152718674,2165507346,2174965568,2179727113,2150725339,735,1,16,45282
1377818885,5807,67.3000030517578100,23.6772003173828120,35.3087005615234400,241.7301940917968800,48.3484992980957000,23.6740493774414060,28.1432704925537100,77,126,88,84,59,15099,2191453714,2207377947,2223562834,2153486418,2168053156,2178339629,2182856292,2151145892,157,1,16,22727
1377818940,5811,65.0800018310546900,23.8666000366210940,35.3162994384765600,243.4434967041015600,42.6353797912597660,23.8510093688964840,27.9964008331298830,75,131,90,84,56,15083,2195972745,2212403730,2228701138,2154455780,2170608347,2181445659,2185547008,2151528228,97,1,16,30394
1377818995,5809,63.1199989318847660,23.9473991394042970,35.3176002502441400,245.5473022460937500,39.4717407226562500,23.9490604400634770,27.8648490905761720,76,128,91,84,58,15077,2198775021,2215109110,2230838482,2155090962,2172938450,2184325961,2188044224,2151862573,3297,1,16,6530
1377819079,5806,59.7999992370605500,24.2262992858886720,35.3051986694335940,246.6065063476562500,31.0352802276611330,24.2107791900634770,27.7148990631103500,73,131,95,86,59,15063,2210070016,2228648813,2245671003,2157460662,2179332050,2192216365,2195005641,2152937398,2567,1,16,50811
1377819134,5807,57.3400001525878900,24.2444992065429700,35.3078994750976560,248.3547973632812500,29.4404697418212900,24.2602996826171880,27.6198005676269530,73,131,92,84,57,15062,2219297426,2239379373,2257041910,2159461046,2185780873,2200371977,2202322998,2154053120,1928,1,16,34071
1377819189,5803,54.9199981689453100,24.3409004211425780,35.2969017028808600,249.4868011474609400,27.1438598632812500,24.3316307067871100,27.5429992675781250,73,127,92,86,59,15065,2227771721,2248389220,2266520576,2161621083,2190732534,2205929636,2206592841,2154878564,1499,1,16,33146
1377819244,5806,52.6300010681152340,24.3679008483886720,35.2890014648437500,249.5753021240234400,25.0056800842285160,24.3980598449707030,27.5131397247314450,70,133,95,86,56,15060,2233875081,2253882459,2270925120,2163331355,2195854546,2211963382,2211707300,2155589184,1174,1,16,9868
1377819299,5809,50.5000000000000000,24.6147003173828120,35.2790985107421900,250.1336059570312500,17.8370208740234380,24.6209697723388670,27.4016399383544920,72,132,93,86,56,15042,2242977417,2263173686,2280230948,2166066496,2201090230,2217967981,2216811803,2156710692,462,1,15,396
1377819356,5807,48.6699981689453100,24.6914997100830080,35.2818984985351560,251.0975036621093800,15.7300195693969730,24.6865406036376950,27.3351192474365230,67,128,92,87,56,15048,2250084781,2271296128,2289325065,2168154486,2205473097,2222956854,2220970112,2157411529,3207,1,16,26309
1377819411,5806,46.9099998474121100,24.7066993713378900,35.2854003906250000,252.0863952636718800,15.0156202316284180,24.7087802886962900,27.2847099304199220,68,131,92,87,58,15031,2258109056,2279565833,2297461952,2170937664,2211376813,2229500845,2226442002,2158575186,2878,1,16,2937
1377819466,5804,44.9300003051757800,24.7712993621826170,35.2826995849609400,252.4409942626953000,12.9446201324462890,24.7732601165771500,27.2444496154785160,67,130,91,85,56,15029,2269372214,2292229577,2311376036,2175541888,2219026121,2238351250,2234163346,2160189385,2616,1,16,22235
1377819521,5809,42.9500007629394500,24.8773994445800780,35.2747993469238300,252.5890960693359400,9.6768198013305660,24.8750495910644530,27.1986103057861330,68,130,91,86,56,15043,2278375488,2302158857,2321613293,2179263213,2226473974,2246911570,2241337819,2161855122,2145,1,16,55548
1377819587,5809,41.1100006103515600,24.9202003479003900,35.2683982849121100,252.9237976074218800,8.1671829223632810,24.9220905303955080,27.1661701202392580,65,127,91,85,55,15058,2283681993,2306447753,2325155949,2182408365,2230709339,2250986541,2244094939,2162642139,1977,0,16,12775
1377819694,5807,38.7999992370605500,25.2129993438720700,35.2683982849121100,252.7848968505859400,-0.5654991865158081,25.1944904327392580,27.0659999847412100,64,128,94,100,56,15060,2302096813,2325415945,2344579922,2189664146,2243964361,2265956105,2256181129,2165487762,1690,1,16,38044
1377819760,5809,37.5800018310546900,25.3605003356933600,35.2625999450683600,252.7344055175781200,-4.5489730834960940,25.3188991546630860,27.0197105407714840,64,124,93,88,58,15053,2313510226,2336559789,2355582784,2193162816,2252282157,2275122139,2263562752,2167170340,1436,2,16,63297
1377820087,5809,35.2299995422363300,25.8054008483886720,35.2550010681152340,252.2487030029297000,-19.9798202514648440,25.8017196655273440,26.8533992767334000,62,129,93,87,56,15023,2342867721,2359182061,2372040438,2201092333,2277699812,2299328365,2278830592,2169934966,713,1,16,8477
1377820175,5815,33.4500007629394500,26.2404003143310550,35.2636985778808600,250.0054931640625000,-33.5336990356445300,26.2270793914794920,26.7835998535156250,58,128,93,86,58,15043,2368004260,2384508059,2396963364,2209684342,2287309394,2308791277,2286026806,2172073819,3584,1,16,45284
1377820337,5802,31.1599998474121100,26.8896007537841800,35.2865982055664060,244.8283996582031200,-52.9939498901367200,26.8399791717529300,26.7682399749755860,60,130,96,88,58,15034,2374926052,2384575122,2390214400,2212803273,2299106706,2319652443,2293763145,2174446454,2969,0,16,32052
1377820630,5811,29.4200000762939450,27.2898998260498050,35.3097991943359400,237.5509033203125000,-67.2462005615234400,27.2905902862548830,26.9120903015136720,57,129,93,84,58,15034,2410188370,2419175716,2424833929,2227880384,2315082825,2336418724,2307109312,2178449910,3243,0,16,3124
1377820751,5808,27.6900005340576170,27.6490993499755860,35.3399009704589840,232.4653930664062500,-78.4675674438476600,27.6464595794677730,27.0030403137207030,56,123,92,86,53,15045,2407254390,2412102912,2414484105,2228510976,2321887286,2341599661,2309706587,2179092370,3203,1,16,13989